• In Latvia
  • List of Countries
  • For 7 days
  • Water Temperature
  • Satellite Maps
  • Weather Map
  • Weather Widgets
  • user-avatar
    Login

    Hourly Weather Gloucester

    Today, 22 June, Friday

    Time Temperature Precipitation Wind Pressure Humidity
    00:00 +7°C° 0 mm 2 mps 767 mmHg 86%
    01:00 +7°C° 0 mm 3 mps 767 mmHg 88%
    02:00 +5°C° 0 mm 3 mps 767 mmHg 90%
    03:00 +5°C° 0 mm 3 mps 767 mmHg 92%
    04:00 +7°C° 0 mm 3 mps 767 mmHg 89%
    05:00 +8°C° 0 mm 3 mps 767 mmHg 87%
    06:00 +9°C° 0 mm 3 mps 767 mmHg 85%
    07:00 +11°C° 0 mm 3 mps 767 mmHg 80%
    08:00 +13°C° 0 mm 3 mps 767 mmHg 75%
    09:00 +14°C° 0 mm 3 mps 767 mmHg 70%
    10:00 +16°C° 0 mm 3 mps 767 mmHg 65%
    11:00 +17°C° 0 mm 2 mps 767 mmHg 61%
    12:00 +19°C° 0 mm 2 mps 767 mmHg 57%
    13:00 +19°C° 0 mm 2 mps 767 mmHg 57%
    14:00 +19°C° 0 mm 2 mps 767 mmHg 56%
    15:00 +20°C° 0 mm 2 mps 767 mmHg 55%
    16:00 +20°C° 0 mm 2 mps 767 mmHg 59%
    17:00 +19°C° 0 mm 2 mps 767 mmHg 62%
    18:00 +19°C° 0 mm 2 mps 766 mmHg 66%
    19:00 +17°C° 0 mm 2 mps 767 mmHg 71%
    20:00 +15°C° 0 mm 2 mps 767 mmHg 75%
    21:00 +13°C° 0 mm 2 mps 767 mmHg 80%
    22:00 +12°C° 0 mm 2 mps 767 mmHg 79%
    23:00 +10°C° 0 mm 2 mps 767 mmHg 78%

    Tomorrow, 23 June, Saturday

    Time Temperature Precipitation Wind Pressure Humidity
    00:00 +9°C° 0 mm 2 mps 767 mmHg 78%
    01:00 +9°C° 0 mm 2 mps 767 mmHg 78%
    02:00 +9°C° 0 mm 1 mps 766 mmHg 77%
    03:00 +9°C° 0 mm 1 mps 766 mmHg 77%
    04:00 +10°C° 0 mm 1 mps 766 mmHg 76%
    05:00 +11°C° 0 mm 1 mps 766 mmHg 74%
    06:00 +12°C° 0 mm 1 mps 766 mmHg 73%
    07:00 +14°C° 0 mm 1 mps 766 mmHg 70%
    08:00 +15°C° 0 mm 2 mps 766 mmHg 66%
    09:00 +17°C° 0 mm 2 mps 766 mmHg 62%
    10:00 +18°C° 0 mm 2 mps 766 mmHg 60%
    11:00 +19°C° 0 mm 2 mps 766 mmHg 58%
    12:00 +21°C° 0 mm 2 mps 766 mmHg 56%
    13:00 +21°C° 0 mm 2 mps 765 mmHg 57%
    14:00 +21°C° 0 mm 2 mps 765 mmHg 57%
    15:00 +23°C° 0 mm 2 mps 765 mmHg 58%
    16:00 +21°C° 0 mm 2 mps 764 mmHg 63%
    17:00 +21°C° 0 mm 2 mps 764 mmHg 67%
    18:00 +20°C° 0 mm 2 mps 764 mmHg 72%
    19:00 +19°C° 0 mm 2 mps 764 mmHg 75%
    20:00 +17°C° 0 mm 2 mps 764 mmHg 77%
    21:00 +16°C° 0 mm 2 mps 764 mmHg 80%
    22:00 +15°C° 0 mm 2 mps 764 mmHg 81%
    23:00 +13°C° 0 mm 2 mps 764 mmHg 81%

    Day after tomorrow, 24 June, Sunday

    Time Temperature Precipitation Wind Pressure Humidity
    00:00 +12°C° 0 mm 2 mps 764 mmHg 82%
    01:00 +12°C° 0 mm 2 mps 764 mmHg 81%
    02:00 +10°C° 0 mm 2 mps 764 mmHg 80%
    03:00 +9°C° 0 mm 2 mps 764 mmHg 80%
    04:00 +10°C° 0 mm 2 mps 764 mmHg 79%
    05:00 +12°C° 0 mm 2 mps 763 mmHg 78%
    06:00 +12°C° 0 mm 1 mps 763 mmHg 76%
    07:00 +14°C° 0 mm 1 mps 764 mmHg 71%
    08:00 +16°C° 0 mm 1 mps 764 mmHg 66%
    09:00 +19°C° 0 mm 1 mps 764 mmHg 60%
    10:00 +20°C° 0 mm 1 mps 764 mmHg 57%
    11:00 +21°C° 0 mm 1 mps 764 mmHg 54%
    12:00 +23°C° 0 mm 1 mps 764 mmHg 51%
    13:00 +23°C° 0 mm 1 mps 763 mmHg 50%
    14:00 +24°C° 0 mm 1 mps 763 mmHg 49%
    15:00 +24°C° 0 mm 1 mps 763 mmHg 47%
    16:00 +24°C° 0 mm 1 mps 763 mmHg 51%
    17:00 +24°C° 0 mm 1 mps 763 mmHg 54%
    18:00 +23°C° 0 mm 1 mps 763 mmHg 58%
    19:00 +21°C° 0 mm 1 mps 763 mmHg 63%
    20:00 +19°C° 0 mm 1 mps 763 mmHg 68%
    21:00 +16°C° 0 mm 1 mps 763 mmHg 73%
    22:00 +15°C° 0 mm 1 mps 763 mmHg 75%
    23:00 +14°C° 0 mm 0 mps 763 mmHg 77%

    25 June, Monday

    Time Temperature Precipitation Wind Pressure Humidity
    00:00 +13°C° 0 mm 0 mps 763 mmHg 79%
    01:00 +13°C° 0 mm 0 mps 763 mmHg 80%
    02:00 +12°C° 0 mm 0 mps 763 mmHg 82%
    03:00 +12°C° 0 mm 0 mps 763 mmHg 83%
    04:00 +13°C° 0 mm 0 mps 763 mmHg 82%
    05:00 +14°C° 0 mm 0 mps 763 mmHg 80%
    06:00 +15°C° 0 mm 0 mps 763 mmHg 79%
    07:00 +17°C° 0 mm 0 mps 763 mmHg 74%
    08:00 +18°C° 0 mm 0 mps 764 mmHg 70%
    09:00 +22°C° 0 mm 1 mps 764 mmHg 65%
    10:00 +23°C° 0 mm 1 mps 764 mmHg 62%
    11:00 +25°C° 0 mm 1 mps 764 mmHg 59%
    12:00 +26°C° 0 mm 1 mps 764 mmHg 56%
    13:00 +26°C° 0 mm 1 mps 764 mmHg 55%
    14:00 +26°C° 0 mm 1 mps 764 mmHg 54%
    15:00 +27°C° 0 mm 1 mps 763 mmHg 53%
    16:00 +26°C° 0 mm 1 mps 763 mmHg 57%
    17:00 +26°C° 0 mm 1 mps 763 mmHg 61%
    18:00 +26°C° 0 mm 1 mps 763 mmHg 64%
    19:00 +24°C° 0 mm 1 mps 763 mmHg 69%
    20:00 +22°C° 0 mm 1 mps 763 mmHg 73%
    21:00 +20°C° 0 mm 1 mps 764 mmHg 78%
    22:00 +19°C° 0 mm 1 mps 764 mmHg 81%
    23:00 +18°C° 0 mm 1 mps 763 mmHg 84%

    26 June, Tuesday

    Time Temperature Precipitation Wind Pressure Humidity
    00:00 +16°C° 0 mm 1 mps 763 mmHg 87%
    01:00 +16°C° 0 mm 1 mps 763 mmHg 88%
    02:00 +15°C° 0 mm 1 mps 763 mmHg 88%
    03:00 +15°C° 0 mm 1 mps 763 mmHg 89%
    04:00 +16°C° 0 mm 1 mps 763 mmHg 87%
    05:00 +18°C° 0 mm 1 mps 763 mmHg 86%
    06:00 +18°C° 0 mm 1 mps 763 mmHg 84%
    07:00 +20°C° 0 mm 1 mps 763 mmHg 79%
    08:00 +20°C° 0 mm 2 mps 763 mmHg 75%
    09:00 +23°C° 0 mm 2 mps 763 mmHg 70%
    10:00 +24°C° 0 mm 3 mps 763 mmHg 67%
    11:00 +25°C° 0 mm 3 mps 763 mmHg 64%
    12:00 +26°C° 0 mm 4 mps 763 mmHg 62%
    13:00 +26°C° 0 mm 4 mps 762 mmHg 60%
    14:00 +26°C° 0 mm 4 mps 762 mmHg 59%
    15:00 +27°C° 0 mm 4 mps 762 mmHg 58%
    16:00 +26°C° 0 mm 4 mps 762 mmHg 60%
    17:00 +25°C° 0 mm 3 mps 762 mmHg 63%
    18:00 +25°C° 0 mm 3 mps 761 mmHg 65%
    19:00 +21°C° 0 mm 3 mps 761 mmHg 67%
    20:00 +19°C° 0 mm 3 mps 762 mmHg 69%
    21:00 +17°C° 0 mm 3 mps 762 mmHg 71%
    22:00 +14°C° 0 mm 3 mps 762 mmHg 72%
    23:00 +13°C° 0 mm 3 mps 762 mmHg 73%

    27 June, Wednesday

    Time Temperature Precipitation Wind Pressure Humidity
    00:00 +12°C° 0 mm 3 mps 762 mmHg 74%
    01:00 +12°C° 0 mm 3 mps 761 mmHg 75%
    02:00 +11°C° 0 mm 3 mps 761 mmHg 76%
    03:00 +11°C° 0 mm 3 mps 761 mmHg 78%
    04:00 +12°C° 0 mm 3 mps 761 mmHg 77%
    05:00 +13°C° 0 mm 3 mps 761 mmHg 77%
    06:00 +14°C° 0 mm 3 mps 761 mmHg 76%
    07:00 +17°C° 0 mm 4 mps 761 mmHg 74%
    08:00 +19°C° 0 mm 4 mps 761 mmHg 71%
    09:00 +21°C° 0 mm 4 mps 760 mmHg 69%
    10:00 +22°C° 0 mm 4 mps 760 mmHg 66%
    11:00 +23°C° 0 mm 5 mps 760 mmHg 63%
    12:00 +26°C° 0 mm 5 mps 760 mmHg 59%
    13:00 +26°C° 0 mm 5 mps 759 mmHg 58%
    14:00 +27°C° 0 mm 5 mps 759 mmHg 58%
    15:00 +27°C° 0 mm 5 mps 759 mmHg 57%
    16:00 +27°C° 0 mm 4 mps 759 mmHg 60%
    17:00 +26°C° 0 mm 4 mps 759 mmHg 64%
    18:00 +26°C° 0 mm 4 mps 759 mmHg 68%
    19:00 +23°C° 0 mm 4 mps 759 mmHg 72%
    20:00 +21°C° 0 mm 4 mps 759 mmHg 76%
    21:00 +19°C° 0 mm 4 mps 759 mmHg 80%
    22:00 +18°C° 0 mm 3 mps 759 mmHg 81%
    23:00 +17°C° 0 mm 3 mps 759 mmHg 82%
    Show more